Ana Sayfa
METAR-TAF:

METAR-TAF

Havaalanları :

Milton, Massachusetts, Amerika Birleşik Devletleri

Enlem: 42-12-44N, Boylam: 071-06-53W, yükseklik: 192 m

Güncel hava durumu gözlemi

Rapor saat 15:51 UTC de 1 saat ve 8 dakika önce yapıldı.
Rüzgar güney/güneydoğudan 7 kt
Sıcaklık -1°C
Nem 59%
Basınç 1030 hPa

METAR: KMQE 141551Z AUTO 15007KT M01/M08 A3043 RMK AO1 SLP325 T10061083

Saat: 11:59 (16:59 UTC)


TAF: eksik

4.000'den fazla havaalanı için hava durumu gözlemleri ve tahminleri (METAR ve TAF raporları).

Kullanılabilir istasyonlar harita üzerinde sarı ve kırmızı noktalarla gösterilir.

İstasyonun adını görmek için fareyi noktanın üzerinde gezdirin.

Sonrasında hava gözlem ve tahminlerini görmek için tıklayın.

Haritayı değiştirmek için: yaklaştırmak için siyah artı işaretli yeşil düğmeye ve uzaklaştırmak için de eksi işaretli düğmeye hızla tıklayın; bitişik haritalar için yeşil okları kullanın.


METAR-TAF: